Content
SEND FEEDBACK

Daily
Averages
Monthly
Summary
United States of America

SILVER LAKE, UTAH


Home > North America > United States > Utah
Elevation: 9303 feet     Latitude: 40 36N     Longitude: 111 35W

WEATHER
 
SELECT A DAY
Number of Records: 96,501;   Date Range: 2/4/02 - 7/31/14
 
SHARE

PRINT THIS DATA

[ ← Previous Day ]
WEATHER ALMANAC - FEBRUARY 13, 2013
[ Next Day → ]
[ °C ]   °F
Weather ElementAverageHighLow
Temperature26.2 °F37.4 °F (3:55 pm)14 °F (5:55 am)
Dewpoint19.5 °F23 °F (3:35 pm)12.2 °F (5:55 am)
Humidity76.9 %93 % (5:55 am)56 % (2:55 pm)
Barometer30.26 in30.32 in (9:35 am)30.19 in (5:35 pm)
Wind Speed1.8 mph11.5 mph (5:15 pm)
Weather ElementAverage
Visibility9.8 mi
Wind DirectionENE (55.4 °)

Weather ElementTotal
Precipitation---
Heating Degree Days39.3 (Base 65)
Averaged from 70 records on February 13, 2013
WEATHER CONDITIONS BREAKOUT
WIND DIRECTION BREAKOUT
WEATHER BY HOUR - FEBRUARY 13, 2013
[ °C ]   °F
Local TimeTemperatureDewpointHumidityBarometerVisibilityWind DirectionWind SpeedGust SpeedPrecipitationEventsConditions
12:35 AM23.0 °F19.4 °F86 %30.30 in7.0 miCalmSnowLight Snow
12:55 AM23.0 °F19.4 °F86 %30.30 in10.0 miCalmOvercast
1:15 AM23.0 °F19.4 °F86 %30.30 in10.0 miSE (130°)3.5 mphOvercast
1:35 AM23.0 °F19.4 °F86 %30.30 in10.0 miCalmOvercast
1:55 AM23.0 °F19.4 °F86 %30.30 in10.0 miCalmOvercast
2:15 AM23.0 °F19.4 °F86 %30.30 in10.0 miCalmOvercast
2:35 AM23.0 °F19.4 °F86 %30.29 in10.0 miCalmOvercast
2:55 AM23.0 °F19.4 °F86 %30.29 in10.0 miCalmOvercast
3:15 AM23.0 °F19.4 °F86 %30.28 in10.0 miCalmOvercast
3:35 AM23.0 °F19.4 °F86 %30.29 in10.0 miCalmOvercast
3:55 AM23.0 °F19.4 °F86 %30.29 in10.0 miCalmOvercast
4:15 AM23.0 °F19.4 °F86 %30.27 in10.0 miCalmOvercast
4:35 AM23.0 °F19.4 °F86 %30.27 in10.0 miCalmOvercast
4:55 AM21.2 °F17.6 °F86 %30.26 in10.0 miCalmMostly Cloudy
5:15 AM17.6 °F14.0 °F86 %30.26 in10.0 miWest (260°)3.5 mphScattered Clouds
5:35 AM17.6 °F14.0 °F86 %30.26 in10.0 miCalmClear
5:55 AM14.0 °F12.2 °F93 %30.26 in7.0 miESE (110°)5.8 mphClear
6:15 AM14.0 °F12.2 °F93 %30.27 in7.0 miCalmScattered Clouds
6:35 AM15.8 °F14.0 °F93 %30.27 in10.0 miCalmOvercast
6:55 AM19.4 °F17.6 °F93 %30.28 in10.0 miCalmOvercast
7:15 AM19.4 °F17.6 °F93 %30.28 in10.0 miCalmOvercast
7:35 AM17.6 °F14.0 °F86 %30.29 in10.0 miWSW (250°)3.5 mphOvercast
7:55 AM19.4 °F15.8 °F86 %30.31 in10.0 miCalmOvercast
8:15 AM19.4 °F15.8 °F86 %30.31 in10.0 miCalmOvercast
8:35 AM19.4 °F17.6 °F93 %30.31 in10.0 miCalmOvercast
8:55 AM21.2 °F17.6 °F86 %30.31 in10.0 miCalmOvercast
9:15 AM21.2 °F17.6 °F86 %30.31 in10.0 miCalmOvercast
9:35 AM23.0 °F19.4 °F86 %30.32 in10.0 miNE (40°)3.5 mphOvercast
9:55 AM24.8 °F19.4 °F80 %30.31 in7.0 miESE (110°)4.6 mphOvercast
10:15 AM26.6 °F19.4 °F74 %30.32 in10.0 miCalmOvercast
10:35 AM26.6 °F19.4 °F74 %30.32 in10.0 miCalmOvercast
10:55 AM28.4 °F19.4 °F69 %30.30 in10.0 miCalmOvercast
11:15 AM28.4 °F19.4 °F69 %30.30 in10.0 miCalmOvercast
11:35 AM28.4 °F19.4 °F69 %30.30 in10.0 miCalmMostly Cloudy
11:55 AM30.2 °F19.4 °F64 %30.29 in10.0 miCalmScattered Clouds
12:15 PM30.2 °F19.4 °F64 %30.28 in10.0 miCalmScattered Clouds
12:35 PM32.0 °F21.2 °F64 %30.26 in10.0 miESE (110°)3.5 mphScattered Clouds
12:55 PM32.0 °F21.2 °F64 %30.26 in10.0 miCalmScattered Clouds
1:15 PM32.0 °F21.2 °F64 %30.26 in10.0 miCalmMostly Cloudy
1:35 PM32.0 °F21.2 °F64 %30.25 in10.0 miCalmMostly Cloudy
1:55 PM32.0 °F21.2 °F64 %30.24 in10.0 miCalmMostly Cloudy
2:15 PM33.8 °F21.2 °F60 %30.22 in10.0 miCalmMostly Cloudy
2:35 PM33.8 °F21.2 °F60 %30.22 in10.0 miCalmMostly Cloudy
2:55 PM35.6 °F21.2 °F56 %30.22 in10.0 miCalmMostly Cloudy
3:15 PM33.8 °F21.2 °F60 %30.22 in10.0 miWest (260°)3.5 mphMostly Cloudy
3:35 PM33.8 °F23.0 °F65 %30.21 in10.0 miCalmScattered Clouds
3:55 PM37.4 °F23.0 °F56 %30.21 in10.0 miWSW (240°)4.6 mphClear
4:15 PM33.8 °F23.0 °F65 %30.21 in10.0 miWSW (250°)5.8 mphClear
4:35 PM33.8 °F23.0 °F65 %30.20 in10.0 miSW (230°)9.2 mphClear
4:55 PM33.8 °F23.0 °F65 %30.20 in10.0 miWSW (240°)10.4 mphClear
5:15 PM33.8 °F23.0 °F65 %30.20 in10.0 miWSW (240°)11.5 mphClear
5:35 PM32.0 °F23.0 °F69 %30.19 in10.0 miWSW (240°)10.4 mphClear
5:55 PM32.0 °F23.0 °F69 %30.19 in10.0 miSW (230°)8.1 mphScattered Clouds
6:15 PM30.2 °F21.2 °F69 %30.20 in10.0 miWSW (240°)10.4 mphScattered Clouds
6:35 PM30.2 °F21.2 °F69 %30.21 in10.0 miSW (230°)9.2 mphMostly Cloudy
6:55 PM30.2 °F21.2 °F69 %30.21 in10.0 miCalmScattered Clouds
7:15 PM28.4 °F21.2 °F74 %30.20 in10.0 miCalmScattered Clouds
7:35 PM30.2 °F21.2 °F69 %30.21 in10.0 miSW (230°)6.9 mphScattered Clouds
7:55 PM30.2 °F21.2 °F69 %30.22 in10.0 miCalmOvercast
8:15 PM30.2 °F21.2 °F69 %30.21 in10.0 miWSW (240°)5.8 mphOvercast
8:35 PM30.2 °F21.2 °F69 %30.21 in10.0 miCalmMostly Cloudy
8:55 PM28.4 °F21.2 °F74 %30.22 in10.0 miCalmScattered Clouds
9:15 PM28.4 °F21.2 °F74 %30.22 in10.0 miCalmClear
9:35 PM26.6 °F21.2 °F80 %30.22 in10.0 miCalmClear
9:55 PM26.6 °F21.2 °F80 %30.22 in10.0 miCalmScattered Clouds
10:15 PM26.6 °F21.2 °F80 %30.22 in10.0 miCalmScattered Clouds
10:35 PM21.2 °F17.6 °F86 %30.22 in10.0 miCalmClear
10:55 PM21.2 °F17.6 °F86 %30.22 in10.0 miCalmClear
11:15 PM21.2 °F17.6 °F86 %30.22 in10.0 miCalmScattered Clouds
11:35 PM21.2 °F19.4 °F93 %30.22 in10.0 miCalmClear
Hourly data recorded from K36U, located miles away from Silver Lake, Utah







STORIES FROM OUR PARTNERS